Location: Ch�risy
(50.2331°N, 2.9131°E)
Time: 17:59:40
(UTC+00:00)

Cosmos 783 Rocket - Pass Details

Date: 17 January 2021
Orbit: 757 x 781 km, 74.1° (Epoch: 27 February)

Event Time Altitude Azimuth Distance (km) Brightness Sun altitude
Rises 17:21:23 0° 337° (NNW) 3,232 7.8 -10.0°
Reaches altitude 10° 17:23:46 10° 340° (NNW) 2,304 7.0 -10.4°
Maximum altitude 17:28:59 69° 64° (ENE) 822 4.4 -11.1°
Drops below altitude 10° 17:34:11 10° 147° (SSE) 2,303 6.8 -11.9°
Sets 17:36:35 0° 150° (SSE) 3,229 7.6 -12.3°
